NOAA 20 (43013 NORAD) Tracking and Keplerian Element Data

This shows tracking and keplerian element data for the satellite.

Feedback or suggestion? Click here.




ElementValue
Catalog43013
NameNOAA 20
Epoch Orbit6930
Epoch Day80.85784705
Epoch Year2019
RAAN20.3996
Inclination98.7136
Eccentricity0.0001129
Argument of Perigee106.8121
Mean Anonmoly253.3179
Mean Motion14.19550603
Decay Rate-2E-08
L11 43013U 17073A 19080.85784705 -.00000002 00000-0 19758-4 0 9998
L22 43013 98.7136 20.3996 0001129 106.8121 253.3179 14.19550603 69300

Live tracking and technical data element details for NOAA 20 (NORAD 43013). NOAA 20 can be tracked NOW for your location showing map with azimuth and elevation plus other details from your city location.

Track the satellite on the map from your city or location and see movement details for azimuth, elevation, latitude, longitude, range, height, and movement on the map or in text.







IsCatalogInMostPopularTable: catalog: 43013, numindb: 282
Update: records affected: 1



GetName: 43013 NOAA 20

Hit Count: updated at: Sat, 23 Mar 2019 02:07:59 GMT